KB0UOA Weather Reports


Display with metric or nautical units.
time (UTC)temp
F
wind
direction
speed
MPH
gust
MPH
rain 1hr
in
rain 24hr
in
rain mn
in
humidity
%
barometer
mb
20260502220904 70 329 2.0 8.0 0.00 0.09 0.06 25 1018.4
20260502220804 70 326 2.0 8.0 0.00 0.09 0.06 25 1018.4
20260502220705 70 327 2.0 8.0 0.00 0.09 0.06 26 1018.4
20260502220505 70 334 2.0 8.0 0.00 0.09 0.06 25 1018.4
20260502220405 70 329 2.0 8.0 0.00 0.09 0.06 25 1018.4
20260502220305 70 319 2.0 8.0 0.00 0.09 0.06 27 1018.5
20260502220205 70 323 2.0 5.0 0.00 0.09 0.06 27 1018.4
20260502220105 70 328 2.0 5.0 0.00 0.09 0.06 25 1018.4
20260502220005 70 321 2.0 5.0 0.00 0.09 0.06 25 1018.5
20260502215905 70 312 2.0 5.0 0.00 0.09 0.06 25 1018.5
20260502215804 70 292 2.0 5.0 0.00 0.09 0.06 26 1018.5
20260502215705 69 295 2.0 5.0 0.00 0.09 0.06 27 1018.5
20260502215604 69 289 2.0 5.0 0.00 0.09 0.06 26 1018.5
20260502215504 69 284 2.0 5.0 0.00 0.09 0.06 25 1018.5
20260502215404 69 278 3.0 5.0 0.00 0.09 0.06 25 1018.6
20260502215305 69 271 3.0 5.0 0.00 0.09 0.06 25 1018.6
20260502215204 69 261 3.0 5.0 0.00 0.09 0.06 25 1018.6
20260502215104 69 256 2.0 6.0 0.00 0.09 0.06 25 1018.6
20260502214904 70 260 2.0 6.0 0.00 0.09 0.06 25 1018.6
20260502214804 70 260 2.0 6.0 0.00 0.09 0.06 25 1018.6
20260502214705 70 249 2.0 6.0 0.00 0.09 0.06 27 1018.7
20260502214505 70 238 1.0 6.0 0.00 0.09 0.06 25 1018.6
20260502214404 70 229 1.0 6.0 0.00 0.09 0.06 25 1018.7
20260502214305 70 229 1.0 6.0 0.00 0.09 0.06 27 1018.7
20260502214205 70 217 1.0 6.0 0.00 0.09 0.06 28 1018.7
20260502214004 70 192 1.0 4.0 0.00 0.09 0.06 25 1018.7
20260502213904 70 203 2.0 4.0 0.00 0.09 0.06 25 1018.7
20260502213804 70 217 2.0 4.0 0.00 0.09 0.06 25 1018.8
20260502213705 70 222 2.0 4.0 0.00 0.09 0.06 26 1018.8
20260502213604 70 229 2.0 4.0 0.00 0.09 0.06 25 1018.8
20260502213504 70 232 2.0 4.0 0.00 0.09 0.06 26 1018.8
20260502213404 70 237 2.0 4.0 0.00 0.09 0.06 24 1018.9
20260502213204 70 236 1.0 4.0 0.00 0.09 0.06 25 1018.8
20260502213104 70 251 1.0 4.0 0.00 0.09 0.06 27 1018.9
20260502213005 70 256 1.0 4.0 0.00 0.09 0.06 26 1018.9
20260502212904 70 246 1.0 4.0 0.00 0.09 0.06 26 1018.9
20260502212804 70 222 1.0 4.0 0.00 0.09 0.06 27 1019.0
20260502212704 70 123 1.0 4.0 0.00 0.09 0.06 26 1019.0
20260502212605 70 124 1.0 4.0 0.00 0.09 0.06 26 1019.0
20260502212504 70 144 1.0 5.0 0.00 0.09 0.06 27 1019.0
20260502212404 70 283 2.0 5.0 0.00 0.09 0.06 28 1019.0
20260502212305 70 322 2.0 5.0 0.00 0.09 0.06 28 1019.0
20260502212104 69 341 2.0 6.0 0.00 0.09 0.06 28 1019.1
20260502212004 69 353 2.0 6.0 0.00 0.09 0.06 27 1019.0
20260502211905 69 1 3.0 6.0 0.00 0.09 0.06 25 1019.0
20260502211805 69 354 2.0 6.0 0.00 0.09 0.06 26 1019.1
20260502211704 69 345 3.0 6.0 0.00 0.09 0.06 26 1019.2
20260502211604 69 352 3.0 6.0 0.00 0.09 0.06 28 1019.1
20260502211504 69 354 3.0 9.0 0.00 0.09 0.06 26 1019.1
20260502211305 69 5 3.0 9.0 0.00 0.09 0.06 27 1019.1
20260502211204 69 4 3.0 9.0 0.00 0.09 0.06 26 1019.2
20260502211104 69 347 3.0 9.0 0.00 0.09 0.06 27 1019.2
20260502211004 69 330 3.0 9.0 0.00 0.09 0.06 26 1019.2
20260502210904 69 310 2.0 9.0 0.00 0.09 0.06 26 1019.2
20260502210804 69 295 2.0 9.0 0.00 0.09 0.06 26 1019.3
20260502210705 69 291 2.0 9.0 0.00 0.09 0.06 26 1019.3
20260502210405 69 266 2.0 5.0 0.00 0.09 0.06 28 1019.3
20260502210305 69 266 2.0 5.0 0.00 0.09 0.06 28 1019.4
20260502210204 69 261 2.0 6.0 0.00 0.09 0.06 27 1019.3
20260502210104 69 249 2.0 6.0 0.00 0.09 0.06 27 1019.4
20260502205904 69 238 2.0 6.0 0.00 0.09 0.06 28 1019.4
20260502205804 69 233 2.0 6.0 0.00 0.09 0.06 28 1019.4
20260502205704 69 224 2.0 6.0 0.00 0.09 0.06 31 1019.3
20260502205604 69 217 2.0 6.0 0.00 0.09 0.06 29 1019.4
20260502205504 69 223 2.0 6.0 0.00 0.09 0.06 30 1019.4
20260502205404 69 232 2.0 6.0 0.00 0.09 0.06 29 1019.4
20260502205305 69 248 2.0 6.0 0.00 0.09 0.06 28 1019.4
20260502205204 69 284 3.0 7.0 0.00 0.09 0.06 27 1019.4
20260502205104 69 310 3.0 8.0 0.00 0.09 0.06 28 1019.4
20260502204805 68 336 3.0 8.0 0.00 0.09 0.06 28 1019.4
20260502204505 68 339 4.0 8.0 0.00 0.09 0.06 28 1019.5
20260502204405 69 344 4.0 8.0 0.00 0.09 0.06 28 1019.5
20260502204305 69 352 3.0 8.0 0.00 0.09 0.06 29 1019.5
20260502204205 69 3 3.0 8.0 0.00 0.09 0.06 27 1019.6
20260502204105 69 10 3.0 7.0 0.00 0.09 0.06 28 1019.6
20260502203904 69 14 3.0 7.0 0.00 0.09 0.06 27 1019.5
20260502203804 69 16 3.0 7.0 0.00 0.09 0.06 27 1019.6
20260502203704 69 31 3.0 7.0 0.00 0.09 0.06 27 1019.6
20260502203604 69 35 2.0 6.0 0.00 0.09 0.06 27 1019.6
20260502203504 69 31 2.0 6.0 0.00 0.09 0.06 27 1019.6
20260502203404 69 41 2.0 6.0 0.00 0.09 0.06 26 1019.6
20260502203304 69 41 2.0 6.0 0.00 0.09 0.06 28 1019.6
20260502203204 69 44 2.0 6.0 0.00 0.09 0.06 28 1019.6
20260502203105 69 122 1.0 6.0 0.00 0.09 0.06 28 1019.7
20260502203004 69 143 1.0 5.0 0.00 0.09 0.06 30 1019.6
20260502202804 69 143 1.0 5.0 0.00 0.09 0.06 28 1019.7
20260502202705 69 174 1.0 5.0 0.00 0.09 0.06 28 1019.7
20260502202605 69 145 1.0 5.0 0.00 0.09 0.06 28 1019.7
20260502202404 69 101 1.0 4.0 0.00 0.09 0.06 28 1019.7
20260502202305 69 94 1.0 5.0 0.00 0.09 0.06 28 1019.7
20260502202204 68 87 2.0 6.0 0.00 0.09 0.06 27 1019.7
20260502201804 68 64 2.0 6.0 0.00 0.09 0.06 29 1019.8
20260502201705 68 64 2.0 6.0 0.00 0.09 0.06 30 1019.7
20260502201504 68 62 2.0 6.0 0.00 0.09 0.06 27 1019.8
20260502201304 68 34 2.0 6.0 0.00 0.09 0.06 27 1019.8
20260502201205 68 17 2.0 6.0 0.00 0.09 0.06 26 1019.8
20260502201104 68 9 2.0 6.0 0.00 0.09 0.06 27 1019.8
20260502200905 68 20 2.0 7.0 0.00 0.09 0.06 30 1019.8
20260502200805 68 2 2.0 7.0 0.00 0.09 0.06 28 1019.8
20260502200704 68 339 2.0 7.0 0.00 0.09 0.06 27 1019.9
20260502200605 68 317 2.0 7.0 0.00 0.09 0.06 28 1019.9
20260502200505 68 333 3.0 7.0 0.00 0.09 0.06 29 1019.9
20260502200305 68 325 2.0 7.0 0.00 0.09 0.06 31 1019.9
20260502200105 68 317 2.0 7.0 0.00 0.09 0.06 29 1019.9
20260502200004 68 313 2.0 7.0 0.00 0.09 0.06 29 1019.9
20260502195904 68 313 2.0 7.0 0.00 0.09 0.06 28 1019.9
20260502195804 68 315 2.0 7.0 0.00 0.09 0.06 27 1019.9
20260502195704 68 319 2.0 7.0 0.00 0.09 0.06 27 1019.9
20260502195604 68 322 2.0 7.0 0.00 0.09 0.06 27 1019.9
20260502195505 69 309 2.0 6.0 0.00 0.09 0.06 28 1019.9
20260502195405 69 302 2.0 7.0 0.00 0.09 0.06 32 1019.9
20260502195305 68 302 2.0 7.0 0.00 0.09 0.06 30 1019.9
20260502195104 68 310 2.0 7.0 0.00 0.09 0.06 29 1019.9
20260502195004 68 310 2.0 7.0 0.00 0.09 0.06 31 1020.0
20260502194804 68 323 2.0 7.0 0.00 0.09 0.06 28 1020.0
20260502194704 68 334 2.0 7.0 0.00 0.09 0.06 27 1020.0
20260502194604 69 339 2.0 7.0 0.00 0.09 0.06 27 1020.0
20260502194504 69 341 2.0 7.0 0.00 0.09 0.06 27 1020.0
20260502194404 69 356 1.0 5.0 0.00 0.09 0.06 29 1020.0
20260502194304 69 8 1.0 5.0 0.00 0.09 0.06 28 1020.0
20260502194104 69 8 2.0 5.0 0.00 0.09 0.06 30 1020.0
20260502194004 69 358 2.0 5.0 0.00 0.09 0.06 28 1020.1
20260502193904 69 354 2.0 5.0 0.00 0.09 0.06 28 1020.0
20260502193804 69 327 1.0 4.0 0.00 0.09 0.06 30 1020.0
20260502193704 69 309 1.0 4.0 0.00 0.09 0.06 31 1020.0
20260502193504 68 322 1.0 4.0 0.00 0.09 0.06 31 1020.0
20260502193404 68 328 1.0 4.0 0.00 0.09 0.06 32 1020.1
20260502193304 68 336 1.0 4.0 0.00 0.09 0.06 29 1020.0
20260502193104 69 38 1.0 4.0 0.00 0.09 0.06 29 1020.1
20260502193004 69 55 1.0 4.0 0.00 0.09 0.06 31 1020.1
20260502192904 68 7 1.0 5.0 0.00 0.09 0.06 31 1020.1
20260502192605 67 16 1.0 5.0 0.00 0.09 0.06 30 1020.1
20260502192404 67 9 2.0 5.0 0.00 0.09 0.06 30 1020.1
20260502192305 67 340 2.0 5.0 0.00 0.09 0.06 30 1020.2
20260502192204 67 312 2.0 5.0 0.00 0.09 0.06 29 1020.2
20260502192104 67 290 2.0 5.0 0.00 0.09 0.06 29 1020.2
20260502192004 67 287 2.0 5.0 0.00 0.09 0.06 30 1020.2
20260502191904 66 279 2.0 5.0 0.00 0.09 0.06 30 1020.2
20260502191804 66 282 2.0 5.0 0.00 0.09 0.06 30 1020.2
20260502191704 66 289 2.0 6.0 0.00 0.09 0.06 31 1020.3
20260502191604 66 288 3.0 6.0 0.00 0.09 0.06 30 1020.3
20260502191504 66 285 3.0 6.0 0.00 0.09 0.06 30 1020.3
20260502191404 66 295 3.0 6.0 0.00 0.09 0.06 29 1020.3
20260502191304 66 302 3.0 6.0 0.00 0.09 0.06 30 1020.4
20260502191105 66 304 2.0 6.0 0.00 0.09 0.06 30 1020.4
20260502190904 66 315 3.0 6.0 0.00 0.09 0.06 31 1020.3
20260502190804 66 325 3.0 6.0 0.00 0.09 0.06 31 1020.3
20260502190704 66 323 3.0 6.0 0.00 0.09 0.06 32 1020.4
20260502190505 66 336 3.0 6.0 0.00 0.09 0.06 30 1020.4
20260502190405 66 338 3.0 7.0 0.00 0.09 0.06 32 1020.4
20260502190305 66 337 3.0 7.0 0.00 0.09 0.06 30 1020.4
20260502190205 66 336 3.0 7.0 0.00 0.09 0.06 31 1020.4
20260502190104 66 337 3.0 7.0 0.00 0.09 0.06 29 1020.5
20260502190004 66 331 3.0 7.0 0.00 0.09 0.06 30 1020.5
20260502185904 66 328 3.0 7.0 0.00 0.09 0.06 30 1020.5
20260502185804 66 324 2.0 7.0 0.00 0.09 0.06 32 1020.5
20260502185604 66 319 2.0 7.0 0.00 0.09 0.06 32 1020.5
20260502185504 67 313 2.0 7.0 0.00 0.09 0.06 31 1020.5
20260502185404 67 303 2.0 7.0 0.00 0.09 0.06 30 1020.5
20260502185204 67 285 1.0 4.0 0.00 0.09 0.06 34 1020.6
20260502185104 67 283 1.0 4.0 0.00 0.09 0.06 34 1020.6
20260502185004 66 275 1.0 4.0 0.00 0.09 0.06 33 1020.5
20260502184805 66 262 1.0 4.0 0.00 0.09 0.06 30 1020.6
20260502184705 66 268 1.0 4.0 0.00 0.09 0.06 33 1020.6
20260502184605 66 249 1.0 4.0 0.00 0.09 0.06 34 1020.7
20260502184505 66 232 1.0 4.0 0.00 0.09 0.06 34 1020.7
20260502184205 66 217 1.0 5.0 0.00 0.09 0.06 33 1020.7
20260502184104 65 215 2.0 5.0 0.00 0.09 0.06 33 1020.7
20260502184004 65 211 2.0 5.0 0.00 0.09 0.06 33 1020.7
20260502183904 65 205 2.0 5.0 0.00 0.09 0.06 34 1020.7
20260502183804 65 203 2.0 5.0 0.00 0.09 0.06 34 1020.7
20260502183704 65 199 2.0 5.0 0.00 0.09 0.06 33 1020.8
20260502183604 65 194 2.0 5.0 0.00 0.09 0.06 32 1020.8
20260502183504 65 189 2.0 5.0 0.00 0.09 0.06 36 1020.7
20260502183404 65 189 2.0 4.0 0.00 0.09 0.06 34 1020.8
20260502183304 64 187 2.0 4.0 0.00 0.09 0.06 34 1020.8
20260502183105 64 186 2.0 5.0 0.00 0.09 0.06 35 1020.7
20260502182904 64 244 2.0 8.0 0.00 0.09 0.06 34 1020.8
20260502182705 64 270 3.0 9.0 0.00 0.09 0.06 33 1020.8
20260502182605 64 55 3.0 10.0 0.00 0.09 0.06 35 1020.9
20260502182504 64 58 3.0 10.0 0.00 0.09 0.06 33 1020.9
20260502182404 64 57 3.0 10.0 0.00 0.09 0.06 34 1020.9
20260502182305 64 54 3.0 10.0 0.00 0.09 0.06 33 1020.9
20260502182204 64 57 3.0 10.0 0.00 0.09 0.06 33 1021.0
20260502182104 64 68 3.0 10.0 0.00 0.09 0.06 34 1021.0
20260502182004 64 77 3.0 10.0 0.00 0.09 0.06 35 1021.0
20260502181904 64 75 3.0 10.0 0.00 0.09 0.06 33 1021.0
20260502181705 65 62 3.0 10.0 0.00 0.09 0.06 34 1021.0
20260502181605 65 46 2.0 6.0 0.00 0.09 0.06 34 1021.0
20260502181505 65 40 2.0 6.0 0.00 0.09 0.06 34 1021.1
20260502181205 65 47 2.0 6.0 0.00 0.09 0.06 34 1021.1
20260502181104 65 53 2.0 6.0 0.00 0.09 0.06 33 1021.2
20260502181005 65 60 2.0 6.0 0.00 0.09 0.06 33 1021.2
20260502180905 65 71 2.0 6.0 0.00 0.09 0.06 34 1021.2
20260502180805 65 83 2.0 6.0 0.00 0.09 0.06 35 1021.2
20260502180605 64 99 2.0 6.0 0.00 0.09 0.06 35 1021.2
20260502180505 64 97 3.0 8.0 0.00 0.09 0.06 34 1021.2
20260502180405 64 96 3.0 8.0 0.00 0.09 0.06 38 1021.3
20260502180305 64 95 3.0 8.0 0.00 0.09 0.06 35 1021.2
20260502180204 64 91 3.0 8.0 0.00 0.09 0.06 37 1021.3
20260502180104 64 84 2.0 8.0 0.00 0.09 0.06 37 1021.3
20260502170504 62 305 2.0 8.0 0.00 0.09 0.06 36 1021.8
20260502170404 62 129 1.0 8.0 0.00 0.09 0.06 36 1021.9
20260502170304 62 117 2.0 6.0 0.00 0.09 0.06 36 1021.9
20260502170204 62 117 2.0 6.0 0.00 0.09 0.06 35 1021.9
20260502170105 62 102 2.0 6.0 0.00 0.09 0.06 35 1021.9
20260502164205 62 95 2.0 7.0 0.00 0.09 0.06 37 1022.1
20260502164004 62 103 2.0 7.0 0.00 0.09 0.06 40 1022.2
20260502163904 61 101 2.0 7.0 0.00 0.09 0.06 39 1022.1
20260502163804 61 101 2.0 7.0 0.00 0.09 0.06 37 1022.1
20260502163704 61 98 3.0 7.0 0.00 0.09 0.06 37 1022.1
20260502163604 61 98 3.0 7.0 0.00 0.09 0.06 36 1022.2
20260502163404 61 96 3.0 10.0 0.00 0.09 0.06 37 1022.2
20260502163204 61 90 3.0 10.0 0.00 0.09 0.06 36 1022.2
20260502163104 61 88 3.0 10.0 0.00 0.09 0.06 36 1022.2
20260502163004 61 85 2.0 10.0 0.00 0.09 0.06 35 1022.3
20260502162904 62 87 2.0 10.0 0.00 0.09 0.06 37 1022.2
20260502162804 62 78 2.0 10.0 0.00 0.09 0.06 36 1022.2
20260502162704 62 65 2.0 10.0 0.00 0.09 0.06 37 1022.2
20260502162604 62 58 2.0 10.0 0.00 0.09 0.06 36 1022.3
20260502162504 62 44 2.0 5.0 0.00 0.09 0.06 39 1022.2
20260502162305 62 34 2.0 5.0 0.00 0.09 0.06 37 1022.3
20260502162004 61 46 2.0 6.0 0.00 0.09 0.06 38 1022.3
20260502161904 61 45 2.0 6.0 0.00 0.09 0.06 36 1022.4
20260502161804 61 54 2.0 6.0 0.00 0.09 0.06 37 1022.4
20260502161604 61 70 2.0 6.0 0.00 0.09 0.06 39 1022.4
20260502161504 61 76 2.0 6.0 0.00 0.09 0.06 38 1022.3
20260502161404 61 78 2.0 6.0 0.00 0.09 0.06 37 1022.3
20260502161305 60 76 3.0 6.0 0.00 0.09 0.06 37 1022.4
20260502161204 60 78 2.0 6.0 0.00 0.09 0.06 39 1022.4
20260502161004 60 79 3.0 7.0 0.00 0.09 0.06 39 1022.4
20260502160904 60 80 3.0 7.0 0.00 0.09 0.06 38 1022.4
20260502160804 60 79 3.0 7.0 0.00 0.09 0.06 38 1022.4
20260502160704 60 84 2.0 7.0 0.00 0.09 0.06 39 1022.4
20260502160604 60 86 2.0 7.0 0.00 0.09 0.06 38 1022.3
20260502160504 60 80 2.0 7.0 0.00 0.09 0.06 38 1022.3
20260502160404 60 82 2.0 7.0 0.00 0.09 0.06 38 1022.3
20260502160304 60 89 2.0 7.0 0.00 0.09 0.06 37 1022.3
20260502160204 60 86 2.0 7.0 0.00 0.09 0.06 38 1022.3
20260502160104 60 88 1.0 7.0 0.00 0.09 0.06 37 1022.3
20260502152305 58 87 2.0 7.0 0.00 0.09 0.06 44 1022.5
20260502152204 58 88 2.0 7.0 0.00 0.09 0.06 43 1022.5
20260502152005 58 90 3.0 7.0 0.00 0.09 0.06 44 1022.5
20260502151905 58 91 3.0 7.0 0.00 0.09 0.06 45 1022.5
20260502151805 58 90 3.0 7.0 0.00 0.09 0.06 41 1022.5
20260502151705 58 93 3.0 7.0 0.00 0.09 0.06 40 1022.5
20260502151605 58 94 2.0 6.0 0.00 0.09 0.06 43 1022.5
20260502151405 58 95 2.0 6.0 0.00 0.09 0.06 43 1022.5
20260502151305 58 94 3.0 6.0 0.00 0.09 0.06 44 1022.5
20260502151204 57 90 3.0 7.0 0.00 0.09 0.06 42 1022.5
20260502151104 57 91 3.0 7.0 0.00 0.09 0.06 42 1022.5
20260502150904 57 90 2.0 7.0 0.00 0.09 0.06 43 1022.5
20260502150805 57 90 2.0 7.0 0.00 0.09 0.06 42 1022.4
20260502150605 57 93 2.0 7.0 0.00 0.09 0.06 47 1022.5
20260502150504 57 94 2.0 7.0 0.00 0.09 0.06 44 1022.4
20260502150405 57 96 2.0 7.0 0.00 0.09 0.06 41 1022.4
20260502150304 57 99 2.0 7.0 0.00 0.09 0.06 43 1022.5
20260502150205 57 104 2.0 6.0 0.00 0.09 0.06 42 1022.5
20260502140104 52 93 3.0 11.0 0.00 0.09 0.06 52 1022.1
20260502130504 49 86 1.0 6.0 0.00 0.09 0.06 66 1021.7
20260502130404 49 86 1.0 6.0 0.00 0.09 0.06 64 1021.7
20260502130304 49 85 1.0 6.0 0.00 0.09 0.06 63 1021.7
20260502130204 49 86 1.0 6.0 0.00 0.09 0.06 64 1021.7
20260502123805 46 99 0.0 4.0 0.00 0.09 0.06 74 1021.4
20260502123704 46 99 0.0 4.0 0.00 0.09 0.06 76 1021.5
20260502123505 46 97 0.0 4.0 0.00 0.09 0.06 76 1021.4
20260502123404 46 96 0.0 4.0 0.00 0.09 0.06 77 1021.4
20260502123304 46 96 0.0 4.0 0.00 0.09 0.06 77 1021.4
20260502123205 45 96 0.0 4.0 0.00 0.09 0.06 77 1021.4
20260502123104 45 95 0.0 4.0 0.00 0.09 0.06 79 1021.3
20260502123004 45 90 0.0 1.0 0.00 0.09 0.06 80 1021.3
20260502122904 45 90 0.0 1.0 0.00 0.09 0.06 80 1021.3
20260502122804 44 90 0.0 1.0 0.00 0.09 0.06 81 1021.3
20260502122604 44 90 0.0 1.0 0.00 0.09 0.06 82 1021.3
20260502122504 44 90 0.0 1.0 0.00 0.09 0.06 82 1021.3
20260502122404 43 90 0.0 1.0 0.00 0.09 0.06 83 1021.3
20260502122306 43 90 0.0 1.0 0.00 0.09 0.06 83 1021.3
20260502122205 43 90 0.0 1.0 0.00 0.09 0.06 83 1021.3
20260502122105 42 90 0.0 1.0 0.00 0.09 0.06 83 1021.2
20260502122005 42 90 0.0 1.0 0.00 0.09 0.06 83 1021.2
20260502121804 42 90 0.0 1.0 0.00 0.09 0.06 83 1021.2
20260502121704 42 90 0.0 1.0 0.00 0.09 0.06 83 1021.2
20260502121605 42 90 0.0 1.0 0.00 0.09 0.06 83 1021.1
20260502121504 42 90 0.0 1.0 0.00 0.09 0.06 83 1021.1
20260502121304 42 90 0.0 1.0 0.00 0.09 0.06 83 1021.1
20260502121105 42 90 0.0 1.0 0.00 0.09 0.06 83 1021.1
20260502121005 42 90 0.0 1.0 0.00 0.09 0.06 83 1021.1
20260502120804 42 90 0.0 1.0 0.00 0.09 0.06 83 1021.1
20260502120604 42 0 0.0 0.0 0.00 0.09 0.06 83 1021.0
20260502120504 42 0 0.0 0.0 0.00 0.09 0.06 83 1021.0
20260502120404 42 90 0.0 1.0 0.00 0.09 0.06 83 1021.0
20260502120205 42 90 0.0 1.0 0.00 0.09 0.06 83 1021.0
20260502120105 42 90 0.0 1.0 0.00 0.09 0.06 83 1021.0
20260502115904 42 90 0.0 1.0 0.00 0.09 0.06 83 1021.0
20260502115804 42 90 0.0 1.0 0.00 0.09 0.06 83 1020.9
20260502115704 42 90 0.0 1.0 0.00 0.09 0.06 83 1020.9
20260502115604 42 90 0.0 1.0 0.00 0.09 0.06 83 1021.0
20260502115504 42 90 0.0 1.0 0.00 0.09 0.06 83 1020.9
20260502115404 42 90 0.0 1.0 0.00 0.09 0.06 83 1020.9
20260502115306 42 90 0.0 1.0 0.00 0.09 0.06 83 1020.9
20260502115205 42 90 0.0 1.0 0.00 0.09 0.06 83 1020.9
20260502115105 42 90 0.0 1.0 0.00 0.09 0.06 84 1020.9
20260502115005 42 88 0.0 1.0 0.00 0.09 0.06 84 1020.8
20260502114904 42 79 0.0 1.0 0.00 0.09 0.06 84 1020.9
20260502114804 42 79 0.0 1.0 0.00 0.09 0.06 84 1020.8
20260502114704 42 80 0.0 1.0 0.00 0.09 0.06 85 1020.8
20260502114605 42 86 0.0 1.0 0.00 0.09 0.06 85 1020.8
20260502114505 42 86 0.0 1.0 0.00 0.09 0.06 86 1020.8
20260502114404 41 86 0.0 1.0 0.00 0.09 0.06 86 1020.8
20260502114104 41 84 0.0 1.0 0.00 0.09 0.06 87 1020.8
20260502114004 41 84 0.0 1.0 0.00 0.09 0.06 88 1020.7
20260502113904 41 92 0.0 1.0 0.00 0.09 0.06 88 1020.7
20260502113804 41 92 0.0 1.0 0.00 0.09 0.06 88 1020.7
20260502113704 41 92 0.0 1.0 0.00 0.09 0.06 88 1020.7
20260502113604 41 0 0.0 0.0 0.00 0.09 0.06 88 1020.7
20260502113405 41 0 0.0 0.0 0.00 0.09 0.06 88 1020.7
20260502113304 41 0 0.0 0.0 0.00 0.09 0.06 88 1020.6
20260502113204 41 0 0.0 0.0 0.00 0.09 0.06 88 1020.6
20260502113104 41 0 0.0 0.0 0.00 0.09 0.06 89 1020.6
20260502113005 41 0 0.0 0.0 0.00 0.09 0.06 89 1020.6
20260502112904 41 0 0.0 0.0 0.00 0.09 0.06 89 1020.6
20260502112804 41 0 0.0 0.0 0.00 0.09 0.06 89 1020.6
20260502112704 41 0 0.0 0.0 0.00 0.09 0.06 89 1020.6
20260502112605 41 0 0.0 0.0 0.00 0.09 0.06 89 1020.5
20260502112504 41 0 0.0 0.0 0.00 0.09 0.06 89 1020.6
20260502112405 41 0 0.0 0.0 0.00 0.09 0.06 89 1020.5
20260502112204 41 0 0.0 0.0 0.00 0.09 0.06 89 1020.5
20260502112104 41 0 0.0 0.0 0.00 0.09 0.06 89 1020.5
20260502112005 41 0 0.0 0.0 0.00 0.09 0.06 89 1020.5
20260502111904 41 0 0.0 0.0 0.00 0.09 0.06 89 1020.5
20260502111804 41 0 0.0 0.0 0.00 0.09 0.06 89 1020.5
20260502111704 41 0 0.0 0.0 0.00 0.09 0.06 89 1020.4
20260502111605 41 0 0.0 0.0 0.00 0.09 0.06 89 1020.4
20260502111404 41 0 0.0 0.0 0.00 0.09 0.06 89 1020.5
20260502111304 41 0 0.0 0.0 0.00 0.09 0.06 89 1020.5
20260502111105 41 0 0.0 0.0 0.00 0.09 0.06 89 1020.4
20260502111004 41 0 0.0 0.0 0.00 0.09 0.06 88 1020.4
20260502110804 41 0 0.0 0.0 0.00 0.09 0.06 88 1020.4
20260502110704 42 0 0.0 0.0 0.00 0.09 0.06 88 1020.4
20260502110505 42 0 0.0 0.0 0.00 0.09 0.06 88 1020.4
20260502110404 42 0 0.0 0.0 0.00 0.09 0.06 88 1020.4
20260502110305 42 0 0.0 0.0 0.00 0.09 0.06 88 1020.4
20260502110204 42 0 0.0 0.0 0.00 0.09 0.06 88 1020.4
20260502110104 42 0 0.0 0.0 0.00 0.09 0.06 88 1020.4
20260502110004 42 0 0.0 0.0 0.00 0.09 0.06 88 1020.4
20260502105804 42 0 0.0 0.0 0.00 0.09 0.06 88 1020.4
20260502105704 42 0 0.0 0.0 0.00 0.09 0.06 88 1020.4
20260502105505 42 0 0.0 0.0 0.00 0.09 0.06 88 1020.3
20260502105405 42 0 0.0 0.0 0.00 0.09 0.06 88 1020.3
20260502105105 42 0 0.0 0.0 0.00 0.09 0.06 88 1020.3
20260502105005 42 0 0.0 0.0 0.00 0.09 0.06 88 1020.3
20260502104905 42 0 0.0 0.0 0.00 0.09 0.06 88 1020.4
20260502104805 42 0 0.0 0.0 0.00 0.09 0.06 88 1020.3
20260502104704 42 0 0.0 0.0 0.00 0.09 0.06 88 1020.3
20260502104605 42 0 0.0 0.0 0.00 0.09 0.06 88 1020.3
20260502104505 42 0 0.0 0.0 0.00 0.09 0.06 88 1020.2
20260502104405 42 0 0.0 0.0 0.00 0.09 0.06 88 1020.3
20260502104305 42 0 0.0 0.0 0.00 0.09 0.06 88 1020.3
20260502104205 42 0 0.0 0.0 0.00 0.09 0.06 88 1020.3
20260502104104 43 0 0.0 0.0 0.00 0.09 0.06 88 1020.2
20260502104004 43 0 0.0 0.0 0.00 0.09 0.06 88 1020.2
20260502103904 43 0 0.0 0.0 0.00 0.09 0.06 88 1020.2
20260502103804 43 0 0.0 0.0 0.00 0.09 0.06 88 1020.2
20260502103704 43 0 0.0 0.0 0.00 0.09 0.06 88 1020.2
20260502103604 43 0 0.0 0.0 0.00 0.09 0.06 88 1020.2
20260502103505 43 0 0.0 0.0 0.00 0.09 0.06 88 1020.2
20260502103404 43 0 0.0 0.0 0.00 0.09 0.06 88 1020.3
20260502103204 43 0 0.0 0.0 0.00 0.09 0.06 88 1020.2
20260502103004 43 0 0.0 0.0 0.00 0.09 0.06 88 1020.2
20260502102904 43 0 0.0 0.0 0.00 0.09 0.06 88 1020.2
20260502102804 43 0 0.0 0.0 0.00 0.09 0.06 88 1020.3
20260502102704 43 0 0.0 0.0 0.00 0.09 0.06 88 1020.3
20260502102605 43 0 0.0 0.0 0.00 0.09 0.06 88 1020.3
20260502102306 44 0 0.0 0.0 0.00 0.09 0.06 88 1020.2
20260502102104 44 0 0.0 0.0 0.00 0.09 0.06 88 1020.2
20260502102004 44 0 0.0 0.0 0.00 0.09 0.06 88 1020.2
20260502101904 44 89 0.0 1.0 0.00 0.09 0.06 88 1020.2
20260502101604 44 89 0.0 1.0 0.00 0.09 0.06 88 1020.3
20260502101404 44 89 0.0 1.0 0.00 0.09 0.06 88 1020.2
20260502101204 44 89 0.0 1.0 0.00 0.09 0.06 88 1020.3
20260502101005 44 87 0.0 3.0 0.00 0.09 0.06 88 1020.2
20260502100905 44 85 0.0 3.0 0.00 0.09 0.06 88 1020.2
20260502100805 44 85 0.0 3.0 0.00 0.09 0.06 88 1020.2
20260502100705 44 85 0.0 3.0 0.00 0.09 0.06 88 1020.2
20260502100605 44 85 0.0 3.0 0.00 0.09 0.06 88 1020.2
20260502100505 45 84 0.0 3.0 0.00 0.09 0.06 88 1020.2
20260502100405 45 83 0.0 3.0 0.00 0.09 0.06 88 1020.2
20260502100305 45 78 0.0 3.0 0.01 0.09 0.06 88 1020.1
20260502100205 45 80 0.0 3.0 0.01 0.09 0.06 88 1020.2
20260502100105 45 77 0.0 3.0 0.01 0.09 0.06 88 1020.2
20260502091504 47 79 0.0 2.0 0.01 0.09 0.06 92 1019.9
20260502091304 47 78 0.0 2.0 0.01 0.09 0.06 92 1020.0
20260502091204 47 78 0.0 2.0 0.01 0.09 0.06 92 1020.0
20260502091104 47 78 0.0 2.0 0.01 0.09 0.06 92 1020.0
20260502090904 47 79 0.0 1.0 0.01 0.09 0.06 92 1020.0
20260502090805 47 84 0.0 1.0 0.01 0.09 0.06 92 1019.9
20260502090704 47 85 0.0 1.0 0.01 0.09 0.06 93 1019.9
20260502090504 47 74 0.0 2.0 0.01 0.09 0.06 93 1019.9
20260502090404 47 75 0.0 2.0 0.00 0.08 0.05 93 1019.9
20260502090304 47 76 0.0 2.0 0.00 0.08 0.05 93 1019.9
20260502090204 47 76 0.0 2.0 0.00 0.08 0.05 93 1019.9
20260502090104 47 76 0.0 2.0 0.00 0.08 0.05 93 1019.9
20260502080104 49 0 0.0 0.0 0.00 0.08 0.05 94 1019.4
20260502071504 51 0 0.0 0.0 0.00 0.08 0.05 93 1019.6
20260502071404 51 0 0.0 0.0 0.00 0.08 0.05 93 1019.6
20260502071304 51 0 0.0 0.0 0.00 0.08 0.05 93 1019.6
20260502071204 51 0 0.0 0.0 0.00 0.08 0.05 93 1019.6
20260502071004 51 0 0.0 0.0 0.00 0.08 0.05 93 1019.7
20260502070904 51 0 0.0 0.0 0.00 0.08 0.05 93 1019.7
20260502070804 51 0 0.0 0.0 0.00 0.08 0.05 93 1019.8
20260502070704 51 0 0.0 0.0 0.00 0.08 0.05 93 1019.8
20260502070604 51 0 0.0 0.0 0.00 0.08 0.05 93 1019.8
20260502070504 51 0 0.0 0.0 0.00 0.08 0.05 93 1019.9
20260502070404 51 0 0.0 0.0 0.00 0.08 0.05 93 1020.0
20260502070304 51 0 0.0 0.0 0.00 0.08 0.05 93 1020.0
20260502070204 51 0 0.0 0.0 0.00 0.08 0.05 93 1020.1
20260502070104 51 0 0.0 0.0 0.00 0.08 0.05 93 1020.1
20260502070004 51 0 0.0 0.0 0.00 0.08 0.05 93 1020.1
20260502065904 51 0 0.0 0.0 0.00 0.08 0.05 93 1020.1
20260502065804 51 0 0.0 0.0 0.00 0.08 0.05 93 1020.1
20260502065604 51 0 0.0 0.0 0.00 0.08 0.05 93 1020.0
20260502065504 51 0 0.0 0.0 0.00 0.08 0.05 93 1019.9
20260502065404 51 0 0.0 0.0 0.00 0.08 0.05 93 1020.0
20260502065204 51 0 0.0 0.0 0.00 0.08 0.05 93 1020.1
20260502065004 51 0 0.0 0.0 0.00 0.08 0.05 93 1020.3
20260502064904 51 0 0.0 0.0 0.00 0.08 0.05 93 1020.3
20260502064804 51 0 0.0 0.0 0.00 0.08 0.05 93 1020.4
20260502064704 51 0 0.0 0.0 0.00 0.08 0.05 93 1020.5
20260502064604 51 0 0.0 0.0 0.00 0.08 0.05 93 1020.5
20260502064505 51 0 0.0 0.0 0.00 0.08 0.05 93 1020.5
20260502064404 51 0 0.0 0.0 0.00 0.08 0.05 93 1020.4
20260502064204 51 0 0.0 0.0 0.00 0.08 0.05 93 1020.3
20260502064104 51 0 0.0 0.0 0.00 0.08 0.05 92 1020.2
20260502064004 51 0 0.0 0.0 0.00 0.08 0.05 92 1020.1
20260502063904 51 0 0.0 0.0 0.00 0.08 0.05 92 1020.1
20260502063804 51 0 0.0 0.0 0.00 0.08 0.05 92 1020.1
20260502063704 51 0 0.0 0.0 0.00 0.08 0.05 92 1020.1
20260502063604 51 0 0.0 0.0 0.00 0.08 0.05 92 1020.0
20260502063504 51 0 0.0 0.0 0.00 0.08 0.05 92 1020.0
20260502063404 51 0 0.0 0.0 0.00 0.08 0.05 92 1020.0
20260502063304 51 0 0.0 0.0 0.00 0.08 0.05 92 1019.9
20260502063204 51 0 0.0 0.0 0.00 0.08 0.05 92 1019.8
20260502063104 51 0 0.0 0.0 0.00 0.08 0.05 92 1019.8
20260502063004 51 0 0.0 0.0 0.00 0.08 0.05 92 1019.8
20260502062904 51 0 0.0 0.0 0.00 0.08 0.05 92 1019.7
20260502062804 51 0 0.0 0.0 0.00 0.08 0.05 92 1019.6
20260502062704 51 0 0.0 0.0 0.00 0.08 0.05 92 1019.6
20260502062504 51 138 0.0 1.0 0.00 0.08 0.05 92 1019.5
20260502062404 51 138 0.0 1.0 0.00 0.08 0.05 92 1019.4
20260502062306 51 139 0.0 1.0 0.00 0.08 0.05 92 1019.4
20260502062204 51 139 0.0 1.0 0.00 0.08 0.05 92 1019.4
20260502061904 51 139 0.0 1.0 0.00 0.08 0.05 92 1019.5
20260502061804 51 139 0.0 1.0 0.00 0.08 0.05 92 1019.5
20260502061704 51 139 0.0 1.0 0.00 0.08 0.05 92 1019.6
20260502061604 51 138 0.0 1.0 0.00 0.08 0.05 92 1019.6
20260502061404 51 139 0.0 1.0 0.00 0.08 0.05 91 1019.7
20260502061204 51 138 0.0 1.0 0.01 0.08 0.05 91 1019.8
20260502061004 51 139 0.0 1.0 0.01 0.08 0.05 91 1019.9
20260502060904 51 139 0.0 1.0 0.01 0.08 0.05 91 1019.9
20260502060804 51 139 0.0 1.0 0.01 0.08 0.05 91 1019.9
20260502060704 51 139 0.0 1.0 0.01 0.08 0.05 91 1019.8
20260502060604 51 139 0.0 1.0 0.01 0.08 0.05 91 1019.7
20260502060504 51 139 0.0 1.0 0.01 0.08 0.05 90 1019.6
20260502060404 51 139 0.0 1.0 0.02 0.08 0.05 90 1019.6
20260502060304 51 132 0.0 1.0 0.02 0.08 0.05 90 1019.6
20260502060204 51 132 0.0 1.0 0.03 0.08 0.05 90 1019.5
20260502060104 51 132 0.0 1.0 0.04 0.08 0.05 90 1019.5
20260502060004 51 129 0.0 1.0 0.05 0.08 0.05 90 1019.5
20260502055904 51 127 0.0 1.0 0.05 0.08 0.05 90 1019.5
20260502055804 51 127 0.0 1.0 0.07 0.08 0.05 90 1019.5
20260502055704 51 122 0.0 1.0 0.07 0.08 0.05 90 1019.5
20260502055604 51 121 0.0 1.0 0.07 0.08 0.05 90 1019.5
20260502055504 51 120 0.0 1.0 0.07 0.08 0.05 90 1019.5
20260502055404 51 120 0.0 1.0 0.07 0.08 0.05 90 1019.5
20260502055306 51 111 0.0 1.0 0.07 0.08 0.05 89 1019.5
20260502055204 51 112 0.0 1.0 0.07 0.08 0.05 89 1019.5
20260502055104 51 112 0.0 1.0 0.07 0.08 0.05 89 1019.5
20260502055004 51 112 0.0 1.0 0.07 0.08 0.05 89 1019.5
20260502054904 51 112 0.0 1.0 0.07 0.08 0.05 89 1019.4
20260502054704 51 112 0.0 1.0 0.07 0.08 0.05 89 1019.3
20260502054604 51 112 0.0 1.0 0.07 0.08 0.05 89 1019.3
20260502054504 51 112 0.0 1.0 0.07 0.08 0.05 89 1019.3
20260502054404 51 112 0.0 1.0 0.07 0.08 0.05 89 1019.3
20260502054304 51 112 0.0 1.0 0.07 0.08 0.05 89 1019.3
20260502054204 51 112 0.0 1.0 0.07 0.08 0.05 89 1019.4
20260502054004 51 113 0.0 1.0 0.07 0.08 0.05 88 1019.4
20260502053904 51 113 0.0 1.0 0.07 0.08 0.05 88 1019.3
20260502053804 52 113 0.0 1.0 0.07 0.08 0.05 88 1019.3
20260502053704 52 113 0.0 1.0 0.07 0.08 0.05 88 1019.4
20260502053604 52 113 0.0 1.0 0.07 0.08 0.05 88 1019.3
20260502053504 52 113 0.0 1.0 0.07 0.08 0.05 88 1019.4
20260502053405 52 113 0.0 1.0 0.07 0.08 0.05 87 1019.4
20260502053304 52 113 0.0 1.0 0.07 0.08 0.05 87 1019.4
20260502053204 52 113 0.0 1.0 0.07 0.08 0.05 87 1019.4
20260502053104 52 0 0.0 0.0 0.07 0.08 0.05 86 1019.3
20260502053004 52 0 0.0 0.0 0.07 0.08 0.05 86 1019.3
20260502052704 52 0 0.0 0.0 0.07 0.08 0.05 86 1019.3
20260502052504 52 113 0.0 1.0 0.07 0.08 0.05 86 1019.2
20260502052404 52 112 0.0 1.0 0.07 0.08 0.05 85 1019.2
20260502052306 52 112 0.0 1.0 0.07 0.08 0.05 85 1019.2
20260502052204 52 112 0.0 1.0 0.07 0.08 0.05 85 1019.2
20260502051904 52 112 0.0 1.0 0.07 0.08 0.05 84 1019.3
20260502051805 52 112 0.0 1.0 0.08 0.08 0.05 84 1019.4
20260502051704 52 112 0.0 1.0 0.08 0.08 0.05 84 1019.4
20260502051605 52 112 0.0 1.0 0.08 0.08 0.05 83 1019.4
20260502051505 52 112 0.0 1.0 0.08 0.08 0.05 83 1019.4
20260502051404 52 112 0.0 1.0 0.08 0.08 0.05 83 1019.5
20260502051205 53 115 0.0 1.0 0.07 0.07 0.04 84 1019.7
20260502051104 53 122 0.0 1.0 0.07 0.07 0.04 84 1019.7
20260502051004 53 122 0.0 1.0 0.07 0.07 0.04 83 1019.7
20260502050904 53 120 0.0 1.0 0.07 0.07 0.04 82 1019.7
20260502050804 53 115 0.0 1.0 0.07 0.07 0.04 82 1019.7
20260502050605 53 114 0.0 1.0 0.07 0.07 0.04 82 1019.7
20260502050504 53 118 0.0 1.0 0.07 0.07 0.04 82 1019.6
20260502050404 54 122 0.0 1.0 0.06 0.06 0.03 82 1019.5
20260502050304 54 122 0.0 1.0 0.06 0.06 0.03 82 1019.6
20260502050104 54 120 0.0 1.0 0.04 0.04 0.01 80 1019.7
20260502050006 54 122 1.0 1.0 0.03 0.03 0.00 80 1019.8
20260502045904 54 126 1.0 1.0 0.01 0.01 0.02 79 1019.7
20260502045804 54 130 0.0 1.0 0.01 0.01 0.01 79 1019.7
20260502045704 53 134 0.0 1.0 0.01 0.01 0.01 79 1019.6
20260502045504 53 138 0.0 1.0 0.01 0.01 0.01 78 1019.4
20260502045404 53 139 0.0 1.0 0.01 0.01 0.01 78 1019.3
20260502045306 53 139 0.0 1.0 0.01 0.01 0.01 78 1019.2
20260502045204 53 139 0.0 1.0 0.01 0.01 0.01 78 1019.1
20260502045104 53 139 0.0 1.0 0.01 0.01 0.01 78 1018.9
20260502045004 53 138 0.0 1.0 0.01 0.01 0.01 79 1018.9
20260502044804 53 138 0.0 1.0 0.01 0.01 0.01 79 1018.7
20260502044704 53 138 0.0 1.0 0.01 0.01 0.01 79 1018.6
20260502044604 53 138 0.0 1.0 0.01 0.01 0.01 79 1018.5
20260502044504 53 138 0.0 1.0 0.01 0.01 0.01 79 1018.5
20260502044404 53 138 0.0 1.0 0.01 0.01 0.01 79 1018.4
20260502044304 53 138 0.0 1.0 0.01 0.01 0.01 80 1018.4
20260502044204 53 144 0.0 2.0 0.01 0.01 0.01 80 1018.4
20260502044104 53 146 0.0 2.0 0.01 0.01 0.01 80 1018.4
20260502044004 53 144 0.0 2.0 0.01 0.01 0.01 80 1018.4
20260502043804 53 143 0.0 2.0 0.01 0.01 0.01 80 1018.4
20260502043704 54 143 0.0 2.0 0.01 0.01 0.01 80 1018.4
20260502043604 54 140 0.0 2.0 0.01 0.01 0.01 80 1018.4
20260502043504 54 140 0.0 2.0 0.01 0.01 0.01 81 1018.4
20260502043404 54 140 0.0 2.0 0.01 0.01 0.01 80 1018.4
20260502043304 54 140 0.0 2.0 0.01 0.01 0.01 80 1018.4
20260502043204 54 135 0.0 2.0 0.01 0.01 0.01 80 1018.4
20260502043004 54 127 0.0 1.0 0.01 0.01 0.01 80 1018.4
20260502042904 54 126 0.0 1.0 0.01 0.01 0.01 80 1018.5
20260502042804 54 126 0.0 1.0 0.01 0.01 0.01 80 1018.5
20260502042604 54 125 0.0 1.0 0.01 0.01 0.01 79 1018.5
20260502042306 54 125 0.0 1.0 0.01 0.01 0.01 78 1018.5
20260502042204 54 125 0.0 1.0 0.01 0.01 0.01 78 1018.5
20260502041904 54 125 0.0 1.0 0.00 0.00 0.00 78 1018.6
20260502041804 54 0 0.0 0.0 0.00 0.00 0.00 78 1018.7
20260502041704 54 0 0.0 0.0 0.00 0.00 0.00 78 1018.7
20260502041604 54 0 0.0 0.0 0.00 0.00 0.00 79 1018.7
20260502041504 54 0 0.0 0.0 0.00 0.00 0.00 78 1018.7
20260502041304 54 0 0.0 0.0 0.00 0.00 0.00 77 1018.6
20260502041204 54 0 0.0 0.0 0.00 0.00 0.00 77 1018.7
20260502041104 54 0 0.0 0.0 0.00 0.00 0.00 77 1018.6
20260502041004 54 0 0.0 0.0 0.00 0.00 0.00 77 1018.6
20260502040804 54 0 0.0 0.0 0.00 0.00 0.00 77 1018.6
20260502040704 54 0 0.0 0.0 0.00 0.00 0.00 77 1018.6
20260502040604 54 0 0.0 0.0 0.00 0.00 0.00 76 1018.7
20260502040404 54 0 0.0 0.0 0.00 0.00 0.00 76 1018.7
20260502040304 54 0 0.0 0.0 0.00 0.00 0.00 76 1018.7
20260502040204 54 0 0.0 0.0 0.00 0.00 0.00 76 1018.7
20260502040004 54 0 0.0 0.0 0.00 0.00 0.00 76 1018.6
20260502035904 54 0 0.0 0.0 0.00 0.00 0.00 76 1018.6
20260502035804 54 0 0.0 0.0 0.00 0.00 0.00 76 1018.6
20260502035704 54 0 0.0 0.0 0.00 0.00 0.00 77 1018.6
20260502035604 54 0 0.0 0.0 0.00 0.00 0.00 77 1018.5
20260502035504 54 0 0.0 0.0 0.00 0.00 0.00 77 1018.5
20260502035404 54 0 0.0 0.0 0.00 0.00 0.00 76 1018.5
20260502035306 54 0 0.0 0.0 0.00 0.00 0.00 76 1018.5
20260502035204 54 0 0.0 0.0 0.00 0.00 0.00 76 1018.5
20260502035104 54 0 0.0 0.0 0.00 0.00 0.00 76 1018.5
20260502035004 54 0 0.0 0.0 0.00 0.00 0.00 75 1018.6
20260502034904 54 0 0.0 0.0 0.00 0.00 0.00 76 1018.6
20260502034704 54 0 0.0 0.0 0.00 0.00 0.00 76 1018.6
20260502034504 54 0 0.0 0.0 0.00 0.00 0.00 75 1018.6
20260502034404 54 0 0.0 0.0 0.00 0.00 0.00 75 1018.6
20260502034304 54 0 0.0 0.0 0.00 0.00 0.00 75 1018.6
20260502034204 54 0 0.0 0.0 0.00 0.00 0.00 76 1018.6
20260502034104 54 0 0.0 0.0 0.00 0.00 0.00 76 1018.6
20260502034004 54 0 0.0 0.0 0.00 0.00 0.00 76 1018.6
20260502033904 54 0 0.0 0.0 0.00 0.00 0.00 76 1018.5
20260502033804 54 0 0.0 0.0 0.00 0.00 0.00 76 1018.5
20260502033604 54 0 0.0 0.0 0.00 0.00 0.00 77 1018.4
20260502033504 54 0 0.0 0.0 0.00 0.00 0.00 77 1018.5
20260502033404 54 113 0.0 1.0 0.00 0.00 0.00 77 1018.5
20260502033304 54 104 0.0 1.0 0.00 0.00 0.00 77 1018.4
20260502033204 54 104 0.0 1.0 0.00 0.00 0.00 77 1018.4
20260502033104 54 104 0.0 1.0 0.00 0.00 0.00 77 1018.4
20260502033004 54 104 0.0 1.0 0.00 0.00 0.00 77 1018.5
20260502032804 54 104 0.0 1.0 0.00 0.00 0.00 77 1018.5
20260502032704 54 101 0.0 1.0 0.00 0.00 0.00 77 1018.4
20260502032604 54 101 0.0 1.0 0.00 0.00 0.00 77 1018.4
20260502032504 54 101 0.0 1.0 0.00 0.00 0.00 76 1018.4
20260502032404 54 96 0.0 1.0 0.00 0.00 0.00 76 1018.4
20260502032306 54 96 0.0 1.0 0.00 0.00 0.00 76 1018.5
20260502032204 54 96 0.0 1.0 0.00 0.00 0.00 76 1018.5
20260502032104 54 96 0.0 1.0 0.00 0.00 0.00 76 1018.5
20260502032004 54 96 0.0 1.0 0.00 0.00 0.00 76 1018.5
20260502031904 54 96 0.0 1.0 0.00 0.00 0.00 76 1018.5
20260502031604 54 96 0.0 1.0 0.00 0.00 0.00 75 1018.4
20260502031504 54 96 0.0 1.0 0.00 0.00 0.00 75 1018.3
20260502031404 55 96 0.0 1.0 0.00 0.00 0.00 75 1018.3
20260502031204 55 96 0.0 1.0 0.00 0.00 0.00 74 1018.3
20260502031104 55 96 0.0 1.0 0.00 0.00 0.00 74 1018.3
20260502031004 55 96 0.0 1.0 0.00 0.00 0.00 74 1018.4
20260502030904 55 96 0.0 1.0 0.00 0.00 0.00 74 1018.3
20260502030804 55 96 0.0 1.0 0.00 0.00 0.00 73 1018.4
20260502030704 55 96 0.0 1.0 0.00 0.00 0.00 73 1018.4
20260502030604 55 96 0.0 1.0 0.00 0.00 0.00 73 1018.4
20260502030504 55 96 0.0 1.0 0.00 0.00 0.00 72 1018.4
20260502030404 55 96 0.0 1.0 0.00 0.00 0.00 71 1018.4
20260502030304 55 96 0.0 1.0 0.00 0.00 0.00 71 1018.4
20260502030104 55 96 0.0 1.0 0.00 0.00 0.00 71 1018.3
20260502030004 55 96 0.0 1.0 0.00 0.00 0.00 71 1018.4
20260502025904 56 96 0.0 1.0 0.00 0.00 0.00 71 1018.3
20260502025804 56 96 0.0 1.0 0.00 0.00 0.00 71 1018.3
20260502025704 56 96 0.0 1.0 0.00 0.00 0.00 70 1018.4
20260502025604 56 96 0.0 1.0 0.00 0.00 0.00 70 1018.3
20260502025504 56 96 0.0 1.0 0.00 0.00 0.00 70 1018.4
20260502025404 56 96 0.0 1.0 0.00 0.00 0.00 68 1018.4
20260502025204 56 95 0.0 1.0 0.00 0.00 0.00 64 1018.4
20260502025104 57 95 0.0 1.0 0.00 0.00 0.00 64 1018.4
20260502025004 57 95 0.0 1.0 0.00 0.00 0.00 64 1018.4
20260502024904 57 95 0.0 2.0 0.00 0.00 0.00 63 1018.5
20260502024804 57 95 0.0 2.0 0.00 0.00 0.00 62 1018.5
20260502024604 57 95 0.0 2.0 0.00 0.00 0.00 62 1018.4
20260502024504 57 95 0.0 2.0 0.00 0.00 0.00 61 1018.4
20260502024404 57 95 0.0 2.0 0.00 0.00 0.00 60 1018.4
20260502024304 57 95 0.0 2.0 0.00 0.00 0.00 60 1018.5
20260502024104 57 95 0.0 2.0 0.00 0.00 0.00 59 1018.4
20260502023904 57 95 0.0 2.0 0.00 0.00 0.00 59 1018.4
20260502023704 57 92 1.0 3.0 0.00 0.00 0.00 59 1018.4
20260502023604 57 89 1.0 3.0 0.00 0.00 0.00 58 1018.4
20260502023504 57 89 1.0 3.0 0.00 0.00 0.00 58 1018.3
20260502023404 57 89 1.0 3.0 0.00 0.00 0.00 58 1018.3
20260502023304 57 89 1.0 3.0 0.00 0.00 0.00 58 1018.3
20260502023204 57 89 0.0 3.0 0.00 0.00 0.00 58 1018.2
20260502023004 57 88 0.0 3.0 0.00 0.00 0.00 58 1018.2
20260502022904 57 88 0.0 3.0 0.00 0.00 0.00 58 1018.2
20260502022804 57 82 0.0 2.0 0.00 0.00 0.00 58 1018.1
20260502022704 57 86 0.0 2.0 0.00 0.00 0.00 59 1018.1
20260502022604 57 103 0.0 1.0 0.00 0.00 0.00 58 1018.1
20260502022504 57 103 0.0 1.0 0.00 0.00 0.00 58 1018.0
20260502022306 57 102 0.0 3.0 0.00 0.00 0.00 59 1017.9
20260502022204 58 102 0.0 3.0 0.00 0.00 0.00 58 1017.9
20260502022104 58 102 0.0 3.0 0.00 0.00 0.00 58 1017.9
20260502021905 58 102 0.0 3.0 0.00 0.00 0.00 58 1017.8
20260502021805 58 99 0.0 3.0 0.00 0.00 0.00 58 1017.8
20260502021705 58 98 1.0 3.0 0.00 0.00 0.00 58 1017.8
20260502021405 58 95 1.0 4.0 0.00 0.00 0.00 57 1017.8
20260502021305 58 93 1.0 4.0 0.00 0.00 0.00 57 1017.8
20260502021104 58 94 1.0 4.0 0.00 0.00 0.00 57 1017.8
20260502021004 58 95 1.0 4.0 0.00 0.00 0.00 57 1017.7
20260502020904 58 91 1.0 4.0 0.00 0.00 0.00 57 1017.7
20260502020604 58 84 1.0 4.0 0.00 0.00 0.00 56 1017.7
20260502020404 58 79 1.0 7.0 0.00 0.00 0.00 56 1017.7
20260502020304 58 83 1.0 7.0 0.00 0.00 0.00 56 1017.7
20260502020204 58 83 1.0 7.0 0.00 0.00 0.00 56 1017.7
20260502020105 58 84 1.0 7.0 0.00 0.00 0.00 56 1017.7
20260502020005 58 82 1.0 7.0 0.00 0.00 0.00 56 1017.8
20260502015905 58 84 1.0 7.0 0.00 0.00 0.00 56 1017.8
20260502015804 58 81 2.0 7.0 0.00 0.00 0.00 56 1017.8
20260502015704 58 77 2.0 7.0 0.00 0.00 0.00 56 1017.8
20260502015605 58 80 1.0 7.0 0.00 0.00 0.00 56 1017.8
20260502015504 58 81 2.0 6.0 0.00 0.00 0.00 56 1017.7
20260502015404 58 83 2.0 6.0 0.00 0.00 0.00 56 1017.8
20260502015305 58 79 2.0 6.0 0.00 0.00 0.00 56 1017.7
20260502015204 58 76 2.0 6.0 0.00 0.00 0.00 56 1017.7
20260502015004 58 75 2.0 6.0 0.00 0.00 0.00 56 1017.6
20260502014904 58 69 2.0 6.0 0.00 0.00 0.00 56 1017.7
20260502014804 58 69 2.0 5.0 0.00 0.00 0.00 55 1017.6
20260502014704 58 73 1.0 5.0 0.00 0.00 0.00 55 1017.6
20260502014604 58 71 1.0 5.0 0.00 0.00 0.00 55 1017.6
20260502014405 58 69 1.0 6.0 0.00 0.00 0.00 55 1017.5
20260502014305 58 71 1.0 6.0 0.00 0.00 0.00 55 1017.5
20260502014204 58 72 2.0 6.0 0.00 0.00 0.00 55 1017.5
20260502014104 58 73 1.0 6.0 0.00 0.00 0.00 55 1017.4
20260502014004 58 72 1.0 6.0 0.00 0.00 0.00 55 1017.4
20260502013904 58 78 2.0 6.0 0.00 0.00 0.00 55 1017.4
20260502013804 58 83 2.0 10.0 0.00 0.00 0.00 55 1017.4
20260502013604 59 83 2.0 10.0 0.00 0.00 0.00 55 1017.4
20260502013404 59 83 2.0 10.0 0.00 0.00 0.00 54 1017.4
20260502013304 59 84 2.0 10.0 0.00 0.00 0.00 54 1017.4
20260502013104 59 86 2.0 10.0 0.00 0.00 0.00 54 1017.4
20260502013004 59 86 2.0 10.0 0.00 0.00 0.00 54 1017.4
20260502012904 59 84 2.0 10.0 0.00 0.00 0.00 54 1017.4
20260502012804 59 78 1.0 6.0 0.00 0.00 0.00 54 1017.4
20260502012704 59 73 1.0 6.0 0.00 0.00 0.00 54 1017.4
20260502012605 59 63 1.0 6.0 0.00 0.00 0.00 54 1017.5
20260502012505 59 62 1.0 6.0 0.00 0.00 0.00 53 1017.5
20260502012405 59 46 1.0 4.0 0.00 0.00 0.00 54 1017.6
20260502012306 59 34 1.0 4.0 0.00 0.00 0.00 54 1017.6
20260502012204 59 37 1.0 4.0 0.00 0.00 0.00 53 1017.6
20260502012104 59 39 1.0 4.0 0.00 0.00 0.00 53 1017.6
20260502012004 59 40 1.0 4.0 0.00 0.00 0.00 53 1017.7
20260502011904 59 43 1.0 5.0 0.00 0.00 0.00 53 1017.7
20260502011804 59 43 1.0 5.0 0.00 0.00 0.00 53 1017.7
20260502011704 59 43 1.0 5.0 0.00 0.00 0.00 53 1017.7
20260502011604 59 47 1.0 5.0 0.00 0.00 0.00 53 1017.7
20260502011504 59 45 1.0 5.0 0.00 0.00 0.00 53 1017.6
20260502011404 59 45 1.0 5.0 0.00 0.00 0.00 53 1017.6
20260502011304 59 55 2.0 5.0 0.00 0.00 0.00 53 1017.6
20260502011105 59 50 2.0 6.0 0.00 0.00 0.00 53 1017.5
20260502011004 59 41 2.0 7.0 0.00 0.00 0.00 53 1017.5
20260502010904 59 41 2.0 7.0 0.00 0.00 0.00 53 1017.4
20260502010804 59 35 2.0 7.0 0.00 0.00 0.00 52 1017.4
20260502010704 59 36 2.0 7.0 0.00 0.00 0.00 52 1017.4
20260502010604 59 35 2.0 7.0 0.00 0.00 0.00 52 1017.4
20260502010504 59 35 3.0 7.0 0.00 0.00 0.00 52 1017.4
20260502010404 59 39 3.0 7.0 0.00 0.00 0.00 52 1017.5
20260502010204 59 38 2.0 7.0 0.00 0.00 0.00 52 1017.4
20260502010104 59 43 2.0 7.0 0.00 0.00 0.00 52 1017.4
20260502010005 59 50 2.0 7.0 0.00 0.00 0.00 52 1017.3
20260502005904 59 54 2.0 7.0 0.00 0.00 0.00 52 1017.3
20260502005704 59 68 3.0 9.0 0.00 0.00 0.00 51 1017.2
20260502005604 59 70 3.0 9.0 0.00 0.00 0.00 51 1017.1
20260502005504 59 73 2.0 9.0 0.00 0.00 0.00 52 1017.1
20260502005404 59 76 2.0 9.0 0.00 0.00 0.00 52 1017.1
20260502005306 59 78 3.0 9.0 0.00 0.00 0.00 52 1017.1
20260502005104 59 77 3.0 9.0 0.00 0.00 0.00 51 1017.1
20260502005004 59 77 3.0 9.0 0.00 0.00 0.00 51 1017.1
20260502004904 59 78 2.0 9.0 0.00 0.00 0.00 51 1017.1
20260502004804 59 76 2.0 8.0 0.00 0.00 0.00 51 1017.0
20260502004704 60 79 2.0 6.0 0.00 0.00 0.00 51 1017.1
20260502004604 60 78 2.0 6.0 0.00 0.00 0.00 51 1017.0
20260502004504 60 74 2.0 9.0 0.00 0.00 0.00 51 1017.0
20260502004404 60 74 2.0 9.0 0.00 0.00 0.00 51 1017.0
20260502004304 60 74 2.0 9.0 0.00 0.00 0.00 51 1017.0
20260502004204 60 74 2.0 9.0 0.00 0.00 0.00 51 1016.9
20260502004104 60 72 2.0 9.0 0.00 0.00 0.00 51 1016.9
20260502003904 60 71 2.0 9.0 0.00 0.00 0.00 52 1017.0
20260502003804 60 73 2.0 9.0 0.00 0.00 0.00 51 1017.0
20260502003605 60 65 2.0 9.0 0.00 0.00 0.00 51 1017.0
20260502003505 60 69 2.0 8.0 0.00 0.00 0.00 52 1017.0
20260502003305 60 69 2.0 6.0 0.00 0.00 0.00 51 1017.0
20260502003205 60 66 2.0 9.0 0.00 0.00 0.00 51 1017.0
20260502003104 60 62 2.0 9.0 0.00 0.00 0.00 52 1016.9
20260502002905 60 57 2.0 9.0 0.00 0.00 0.00 52 1017.0
20260502002704 60 49 2.0 9.0 0.00 0.00 0.00 51 1017.1
20260502002604 60 55 3.0 9.0 0.00 0.00 0.00 51 1017.0
20260502002504 60 53 3.0 9.0 0.00 0.00 0.00 51 1017.0
20260502002404 60 50 3.0 9.0 0.00 0.00 0.00 51 1017.1
20260502002306 60 46 3.0 9.0 0.00 0.00 0.00 51 1017.0
20260502002205 60 48 3.0 8.0 0.00 0.00 0.00 52 1017.0
20260502002105 60 46 3.0 8.0 0.00 0.00 0.00 52 1016.9
20260502002005 60 43 3.0 8.0 0.00 0.00 0.00 51 1017.0
20260502001905 60 39 3.0 8.0 0.00 0.00 0.00 51 1017.0
20260502001705 60 37 4.0 11.0 0.00 0.00 0.00 51 1017.1
20260502001605 60 33 4.0 11.0 0.00 0.00 0.00 51 1017.0
20260502001505 60 31 4.0 11.0 0.00 0.00 0.00 51 1017.0
20260502001405 60 26 3.0 11.0 0.00 0.00 0.00 51 1017.1
20260502001305 60 27 3.0 11.0 0.00 0.00 0.00 51 1017.1
20260502000905 61 35 3.0 11.0 0.00 0.00 0.00 51 1017.0
20260502000804 61 32 3.0 10.0 0.00 0.00 0.00 51 1017.0
20260502000705 61 34 3.0 10.0 0.00 0.00 0.00 50 1017.0
20260502000604 61 38 3.0 9.0 0.00 0.00 0.00 50 1017.0
20260502000505 61 37 3.0 9.0 0.00 0.00 0.00 50 1017.0
20260502000405 61 41 3.0 9.0 0.00 0.00 0.00 49 1017.0
20260502000305 61 38 3.0 9.0 0.00 0.00 0.00 49 1017.0
20260502000205 61 35 3.0 9.0 0.00 0.00 0.00 49 1017.0
20260502000105 61 38 3.0 9.0 0.00 0.00 0.00 48 1017.0
20260502000005 61 38 3.0 8.0 0.00 0.00 0.00 48 1016.9
20260501235905 61 36 3.0 7.0 0.00 0.00 0.00 48 1016.9
20260501235804 61 39 3.0 7.0 0.00 0.00 0.00 48 1016.9
20260501235704 61 39 3.0 7.0 0.00 0.00 0.00 48 1016.9
20260501235604 61 36 3.0 10.0 0.00 0.00 0.00 48 1016.9
20260501235504 61 37 4.0 10.0 0.00 0.00 0.00 48 1016.9
20260501235405 61 41 4.0 10.0 0.00 0.00 0.00 48 1016.9
20260501235306 62 44 4.0 10.0 0.00 0.00 0.00 48 1016.9
20260501235205 62 46 4.0 10.0 0.00 0.00 0.00 48 1016.8
20260501235105 62 48 4.0 10.0 0.00 0.00 0.00 47 1016.9
20260501235005 62 48 4.0 10.0 0.00 0.00 0.00 47 1016.8
20260501234905 62 46 4.0 10.0 0.00 0.00 0.00 47 1016.8
20260501234805 62 45 4.0 10.0 0.00 0.00 0.00 47 1016.8
20260501234705 62 46 3.0 10.0 0.00 0.00 0.00 46 1016.8
20260501234605 62 50 3.0 10.0 0.00 0.00 0.00 47 1016.8
20260501234504 62 53 3.0 10.0 0.00 0.00 0.00 47 1016.8
20260501234405 62 48 2.0 10.0 0.00 0.00 0.00 47 1016.8
20260501234304 62 44 2.0 8.0 0.00 0.00 0.00 48 1016.7
20260501234105 62 37 2.0 8.0 0.00 0.00 0.00 48 1016.7
20260501234005 62 27 3.0 11.0 0.00 0.00 0.00 48 1016.8
20260501233905 62 25 3.0 11.0 0.00 0.00 0.00 48 1016.8
20260501233805 62 31 3.0 11.0 0.00 0.00 0.00 48 1016.8
20260501233605 62 36 3.0 11.0 0.00 0.00 0.00 48 1016.8
20260501233505 62 42 3.0 11.0 0.00 0.00 0.00 47 1016.8
20260501233405 62 43 3.0 11.0 0.00 0.00 0.00 47 1016.8
20260501233305 62 47 4.0 11.0 0.00 0.00 0.00 47 1016.8
20260501233204 62 42 4.0 11.0 0.00 0.00 0.00 47 1016.8
20260501233104 62 41 4.0 11.0 0.00 0.00 0.00 47 1016.8
20260501233004 62 44 4.0 10.0 0.00 0.00 0.00 47 1016.8
20260501232804 62 41 4.0 10.0 0.00 0.00 0.00 47 1016.8
20260501232704 62 39 4.0 11.0 0.00 0.00 0.00 48 1016.8
20260501232605 62 35 4.0 11.0 0.00 0.00 0.00 48 1016.8
20260501232505 62 26 4.0 11.0 0.00 0.00 0.00 48 1016.6
20260501232405 62 30 4.0 11.0 0.00 0.00 0.00 48 1016.7
20260501232105 62 34 4.0 11.0 0.00 0.00 0.00 48 1016.6
20260501232005 62 35 4.0 11.0 0.00 0.00 0.00 48 1016.6
20260501231705 62 34 4.0 12.0 0.00 0.00 0.00 48 1016.6
20260501231405 62 30 3.0 12.0 0.00 0.00 0.00 49 1016.6
20260501231305 62 24 3.0 12.0 0.00 0.00 0.00 49 1016.6
20260501231205 62 23 3.0 12.0 0.00 0.00 0.00 48 1016.6
20260501231004 62 19 3.0 12.0 0.00 0.00 0.00 49 1016.6
20260501230904 62 15 3.0 12.0 0.00 0.00 0.00 50 1016.6
20260501230805 61 15 3.0 12.0 0.00 0.00 0.00 50 1016.6
20260501230605 61 11 4.0 12.0 0.00 0.00 0.00 50 1016.6
20260501230405 61 14 5.0 12.0 0.00 0.00 0.00 50 1016.6
20260501230305 61 14 5.0 12.0 0.00 0.00 0.00 50 1016.6
20260501230205 61 13 5.0 12.0 0.00 0.00 0.00 50 1016.6
20260501230005 61 12 5.0 12.0 0.00 0.00 0.00 50 1016.6
20260501225905 61 13 5.0 12.0 0.00 0.00 0.00 50 1016.6
20260501225705 61 12 5.0 12.0 0.00 0.00 0.00 51 1016.5
20260501225604 61 15 5.0 12.0 0.00 0.00 0.00 51 1016.5
20260501225405 61 9 5.0 13.0 0.00 0.00 0.00 52 1016.5
20260501225306 61 7 6.0 13.0 0.00 0.00 0.00 52 1016.5
20260501225204 61 8 6.0 13.0 0.00 0.00 0.00 52 1016.5
20260501225104 61 6 6.0 13.0 0.00 0.00 0.00 53 1016.5
20260501225004 62 6 6.0 13.0 0.00 0.00 0.00 53 1016.4
20260501224904 62 5 6.0 13.0 0.00 0.00 0.00 53 1016.5
20260501224805 62 1 6.0 13.0 0.00 0.00 0.00 52 1016.4
20260501224705 62 2 7.0 14.0 0.00 0.00 0.00 52 1016.5
20260501224605 62 354 7.0 14.0 0.00 0.00 0.00 50 1016.4
20260501224305 63 358 6.0 14.0 0.00 0.00 0.00 49 1016.6
20260501224105 64 356 6.0 14.0 0.00 0.00 0.00 47 1016.7
20260501223905 65 352 6.0 14.0 0.00 0.00 0.00 43 1016.5
20260501223505 66 6 4.0 9.0 0.00 0.00 0.00 35 1016.2
20260501223405 66 3 4.0 9.0 0.00 0.00 0.00 34 1016.2
20260501223305 66 1 4.0 9.0 0.00 0.00 0.00 34 1016.1
20260501223205 66 5 4.0 8.0 0.00 0.00 0.00 34 1016.1
20260501223105 66 8 4.0 8.0 0.00 0.00 0.00 34 1016.1
20260501223005 66 8 3.0 8.0 0.00 0.00 0.00 34 1016.1
20260501222904 66 13 3.0 8.0 0.00 0.00 0.00 35 1016.1
20260501222704 66 13 4.0 9.0 0.00 0.00 0.00 33 1016.0
20260501222504 67 16 4.0 9.0 0.00 0.00 0.00 32 1016.0
20260501222404 67 21 4.0 9.0 0.00 0.00 0.00 32 1016.0
20260501222306 67 28 3.0 9.0 0.00 0.00 0.00 32 1015.9
20260501222105 67 31 3.0 9.0 0.00 0.00 0.00 33 1015.9
20260501222005 67 38 3.0 9.0 0.00 0.00 0.00 33 1015.8
20260501221905 67 41 3.0 9.0 0.00 0.00 0.00 32 1015.8
20260501221805 68 46 3.0 9.0 0.00 0.00 0.00 32 1015.8
20260501221705 68 59 3.0 10.0 0.00 0.00 0.00 31 1015.7
20260501221605 68 59 3.0 10.0 0.00 0.00 0.00 31 1015.7
20260501221505 68 59 3.0 10.0 0.00 0.00 0.00 32 1015.7
20260501221405 68 60 3.0 10.0 0.00 0.00 0.00 31 1015.7
20260501221204 69 37 3.0 10.0 0.00 0.00 0.00 32 1015.7
20260501221004 69 12 2.0 10.0 0.00 0.00 0.00 30 1015.7